C/2020 H8 ( PanSTARRS )

Japanese version
Home page
Updated on July 11, 2020

---------------------------------------------------------------------

* Profile

Discovery Date April 30, 2020
Magnitude 20.7 mag
Discoverer R. Wainscoat (Pan-STARRS2 1.8-m Ritchey-Chretien reflector at Haleakala)

* Pictures

* Orbital Elements

Epoch 2020 May 31.0 TT = JDT 2459000.5
T 2020 June 3.99517 TT                                  Rudenko
q   4.6742160            (2000.0)            P               Q
z  +0.0017705      Peri.  128.86955     -0.10962693     -0.38419483
 +/-0.0000393      Node    68.41251     -0.88472526     -0.38264459
e   0.9917245      Incl.   99.64232     +0.45303770     -0.84022464
From 159 observations 2020 Apr. 30-July 4, mean residual 0".4.

* Magnitudes Graph

        m1 = 10.0 + 5 log d + 10.0 log r

---------------------------------------------------------------------

The orbital elements are published on M.P.E.C. 2020-N31.
The magnitudes graphs are made with Comet for Windows.

---------------------------------------------------------------------

Copyright(C) Seiichi Yoshida (comet@aerith.net). All rights reserved.